• în România
  • Lista ţărilor
  • Pe 7 zile
  • Temperatura apei
  • Hartă satelitară
  • Meteo pe hartă
  • Widget-uri
  • user-avatar
    Intrare

    Meteo pe oră la Wiktoria

    Astăzi, 24 Iulie, Luni

    Timp Temperatura Precipitaţii Vânt Presiune Umiditate
    00:00 +7°C° 0 mm 1 m/s 751 mmHg 95%
    01:00 +7°C° 0 mm 1 m/s 751 mmHg 95%
    02:00 +6°C° 0 mm 1 m/s 751 mmHg 96%
    03:00 +6°C° 0 mm 1 m/s 752 mmHg 96%
    04:00 +6°C° 0 mm 1 m/s 752 mmHg 96%
    05:00 +6°C° 0 mm 1 m/s 752 mmHg 96%
    06:00 +5°C° 0 mm 1 m/s 752 mmHg 96%
    07:00 +5°C° 0 mm 1 m/s 753 mmHg 97%
    08:00 +7°C° 0 mm 1 m/s 753 mmHg 95%
    09:00 +8°C° 0 mm 1 m/s 754 mmHg 92%
    10:00 +9°C° 0 mm 2 m/s 754 mmHg 90%
    11:00 +9°C° 0 mm 2 m/s 754 mmHg 89%
    12:00 +10°C° 0 mm 2 m/s 754 mmHg 88%
    13:00 +10°C° 0 mm 3 m/s 753 mmHg 86%
    14:00 +10°C° 0 mm 2 m/s 753 mmHg 86%
    15:00 +10°C° 0 mm 2 m/s 753 mmHg 86%
    16:00 +11°C° 0 mm 1 m/s 753 mmHg 87%
    17:00 +10°C° 0 mm 1 m/s 753 mmHg 89%
    18:00 +9°C° 0 mm 1 m/s 753 mmHg 92%
    19:00 +7°C° 0 mm 2 m/s 754 mmHg 94%
    20:00 +7°C° 0 mm 2 m/s 754 mmHg 95%
    21:00 +7°C° 0 mm 2 m/s 754 mmHg 95%
    22:00 +7°C° 0 mm 2 m/s 754 mmHg 95%
    23:00 +7°C° 0 mm 2 m/s 754 mmHg 95%

    Mâine, 25 Iulie, Marţi

    Timp Temperatura Precipitaţii Vânt Presiune Umiditate
    00:00 +7°C° 0 mm 2 m/s 754 mmHg 95%
    01:00 +7°C° 0 mm 2 m/s 754 mmHg 95%
    02:00 +7°C° 0 mm 2 m/s 753 mmHg 95%
    03:00 +6°C° 0 mm 2 m/s 753 mmHg 95%
    04:00 +6°C° 0 mm 2 m/s 753 mmHg 95%
    05:00 +6°C° 0 mm 2 m/s 753 mmHg 95%
    06:00 +5°C° 0 mm 2 m/s 753 mmHg 95%
    07:00 +5°C° 0 mm 2 m/s 753 mmHg 94%
    08:00 +5°C° 0 mm 3 m/s 753 mmHg 91%
    09:00 +8°C° 0 mm 3 m/s 753 mmHg 87%
    10:00 +8°C° 0 mm 4 m/s 753 mmHg 83%
    11:00 +10°C° 0 mm 4 m/s 752 mmHg 80%
    12:00 +11°C° 0 mm 4 m/s 752 mmHg 77%
    13:00 +12°C° 0 mm 4 m/s 751 mmHg 74%
    14:00 +13°C° 0 mm 4 m/s 750 mmHg 72%
    15:00 +14°C° 0 mm 3 m/s 750 mmHg 71%
    16:00 +16°C° 0 mm 3 m/s 749 mmHg 69%
    17:00 +14°C° 0 mm 3 m/s 749 mmHg 73%
    18:00 +12°C° 0 mm 3 m/s 749 mmHg 77%
    19:00 +10°C° 0 mm 2 m/s 749 mmHg 81%
    20:00 +10°C° 0,1 mm 2 m/s 749 mmHg 83%
    21:00 +10°C° 0,1 mm 3 m/s 750 mmHg 85%
    22:00 +9°C° 0,1 mm 3 m/s 750 mmHg 87%
    23:00 +9°C° 0 mm 3 m/s 750 mmHg 89%

    Poimâine, 26 Iulie, Miercuri

    Timp Temperatura Precipitaţii Vânt Presiune Umiditate
    00:00 +9°C° 0 mm 3 m/s 750 mmHg 92%
    01:00 +8°C° 0 mm 3 m/s 749 mmHg 94%
    02:00 +8°C° 0 mm 3 m/s 749 mmHg 95%
    03:00 +8°C° 0 mm 2 m/s 749 mmHg 96%
    04:00 +7°C° 0 mm 2 m/s 749 mmHg 96%
    05:00 +7°C° 0 mm 2 m/s 750 mmHg 97%
    06:00 +7°C° 0 mm 2 m/s 750 mmHg 97%
    07:00 +7°C° 0 mm 2 m/s 751 mmHg 97%
    08:00 +8°C° 0 mm 3 m/s 751 mmHg 94%
    09:00 +8°C° 0 mm 4 m/s 751 mmHg 90%
    10:00 +9°C° 0 mm 5 m/s 752 mmHg 86%
    11:00 +10°C° 0,1 mm 5 m/s 752 mmHg 83%
    12:00 +10°C° 0,1 mm 5 m/s 752 mmHg 81%
    13:00 +11°C° 0,1 mm 6 m/s 752 mmHg 78%
    14:00 +12°C° 0,1 mm 5 m/s 752 mmHg 77%
    15:00 +12°C° 0,1 mm 5 m/s 752 mmHg 75%
    16:00 +13°C° 0,1 mm 5 m/s 752 mmHg 74%
    17:00 +11°C° 0 mm 4 m/s 753 mmHg 79%
    18:00 +9°C° 0 mm 3 m/s 753 mmHg 84%
    19:00 +8°C° 0 mm 2 m/s 754 mmHg 89%
    20:00 +7°C° 0 mm 2 m/s 754 mmHg 90%
    21:00 +6°C° 0 mm 2 m/s 755 mmHg 90%
    22:00 +6°C° 0 mm 2 m/s 755 mmHg 91%
    23:00 +5°C° 0 mm 2 m/s 755 mmHg 91%

    27 Iulie, Joi

    Timp Temperatura Precipitaţii Vânt Presiune Umiditate
    00:00 +6°C° 0 mm 1 m/s 755 mmHg 91%
    01:00 +5°C° 0 mm 1 m/s 755 mmHg 91%
    02:00 +5°C° 0 mm 1 m/s 755 mmHg 91%
    03:00 +5°C° 0 mm 1 m/s 755 mmHg 91%
    04:00 +4°C° 0 mm 1 m/s 755 mmHg 91%
    05:00 +4°C° 0 mm 1 m/s 755 mmHg 91%
    06:00 +4°C° 0 mm 1 m/s 755 mmHg 91%
    07:00 +4°C° 0 mm 1 m/s 755 mmHg 91%
    08:00 +6°C° 0 mm 1 m/s 756 mmHg 86%
    09:00 +7°C° 0 mm 1 m/s 756 mmHg 81%
    10:00 +9°C° 0 mm 1 m/s 756 mmHg 76%
    11:00 +10°C° 0 mm 2 m/s 756 mmHg 72%
    12:00 +12°C° 0 mm 2 m/s 755 mmHg 68%
    13:00 +12°C° 0 mm 3 m/s 754 mmHg 64%
    14:00 +12°C° 0 mm 3 m/s 754 mmHg 67%
    15:00 +12°C° 0 mm 3 m/s 753 mmHg 70%
    16:00 +12°C° 0 mm 3 m/s 752 mmHg 73%
    17:00 +11°C° 0 mm 3 m/s 752 mmHg 77%
    18:00 +10°C° 0 mm 3 m/s 752 mmHg 81%
    19:00 +8°C° 0 mm 3 m/s 752 mmHg 85%
    20:00 +7°C° 0,4 mm 4 m/s 752 mmHg 87%
    21:00 +7°C° 0,4 mm 4 m/s 752 mmHg 89%
    22:00 +7°C° 0,4 mm 4 m/s 751 mmHg 91%
    23:00 +7°C° 0,5 mm 4 m/s 751 mmHg 92%

    28 Iulie, Vineri

    Timp Temperatura Precipitaţii Vânt Presiune Umiditate
    00:00 +7°C° 0,5 mm 5 m/s 750 mmHg 92%
    01:00 +7°C° 0,5 mm 5 m/s 749 mmHg 93%
    02:00 +7°C° 0 mm 4 m/s 749 mmHg 93%
    03:00 +7°C° 0 mm 3 m/s 749 mmHg 93%
    04:00 +7°C° 0 mm 3 m/s 749 mmHg 94%
    05:00 +6°C° 0 mm 2 m/s 749 mmHg 94%
    06:00 +7°C° 0 mm 1 m/s 750 mmHg 95%
    07:00 +6°C° 0 mm 1 m/s 751 mmHg 95%
    08:00 +8°C° 0 mm 1 m/s 751 mmHg 92%
    09:00 +9°C° 0 mm 1 m/s 752 mmHg 89%
    10:00 +11°C° 0 mm 1 m/s 752 mmHg 86%
    11:00 +12°C° 0 mm 2 m/s 752 mmHg 79%
    12:00 +13°C° 0 mm 2 m/s 752 mmHg 72%
    13:00 +14°C° 0 mm 2 m/s 751 mmHg 64%
    14:00 +14°C° 0 mm 2 m/s 751 mmHg 65%
    15:00 +14°C° 0 mm 1 m/s 751 mmHg 66%
    16:00 +14°C° 0 mm 1 m/s 751 mmHg 67%
    17:00 +13°C° 0 mm 1 m/s 751 mmHg 71%
    18:00 +11°C° 0 mm 1 m/s 752 mmHg 76%
    19:00 +9°C° 0 mm 1 m/s 752 mmHg 80%
    20:00 +8°C° 0 mm 2 m/s 752 mmHg 81%
    21:00 +7°C° 0 mm 2 m/s 752 mmHg 83%
    22:00 +7°C° 0 mm 2 m/s 752 mmHg 84%
    23:00 +7°C° 0 mm 3 m/s 752 mmHg 85%

    29 Iulie, Sâmbătă

    Timp Temperatura Precipitaţii Vânt Presiune Umiditate
    00:00 +7°C° 0 mm 3 m/s 751 mmHg 86%
    01:00 +5°C° 0 mm 4 m/s 751 mmHg 86%
    02:00 +5°C° 0 mm 4 m/s 750 mmHg 86%
    03:00 +5°C° 0 mm 4 m/s 750 mmHg 86%
    04:00 +5°C° 0 mm 4 m/s 749 mmHg 86%
    05:00 +5°C° 0 mm 5 m/s 749 mmHg 85%
    06:00 +5°C° 0 mm 5 m/s 749 mmHg 83%
    07:00 +5°C° 0 mm 5 m/s 748 mmHg 81%
    08:00 +7°C° 0 mm 6 m/s 748 mmHg 78%
    09:00 +8°C° 0 mm 6 m/s 747 mmHg 75%
    10:00 +10°C° 0 mm 7 m/s 747 mmHg 71%
    11:00 +12°C° 0 mm 7 m/s 746 mmHg 66%
    12:00 +15°C° 0 mm 7 m/s 745 mmHg 62%
    13:00 +19°C° 0 mm 6 m/s 744 mmHg 57%
    14:00 +19°C° 0 mm 6 m/s 743 mmHg 57%
    15:00 +20°C° 0 mm 6 m/s 742 mmHg 58%
    16:00 +20°C° 0 mm 5 m/s 741 mmHg 58%
    17:00 +20°C° 0 mm 6 m/s 742 mmHg 52%
    18:00 +19°C° 0 mm 6 m/s 742 mmHg 46%
    19:00 +18°C° 0 mm 7 m/s 742 mmHg 40%
    20:00 +15°C° 0,3 mm 6 m/s 743 mmHg 57%
    21:00 +13°C° 0,3 mm 5 m/s 743 mmHg 74%
    22:00 +11°C° 0,3 mm 4 m/s 744 mmHg 90%
    23:00 +10°C° 1,3 mm 4 m/s 744 mmHg 92%
    Arată mai mult